User: anonymous   Login
Location: Valencia
(39.4670°N, 0.3670°W)
Time: 16:58:34
(UTC+01:00)
Language:

ISS - Orbit

View from above orbital plane
View from above orbital plane
View from above satellite
View from above satellite

Ground track
Ground track

The orbit data is extracted from the following two-line orbital elements,

1 25544U 98067A   18051.30101990  .00016717  00000-0  10270-3 0  9049
2 25544  51.6387 241.4249 0002966 111.9408 248.2060 15.54101215 20330
Epoch (UTC): 20 February 2018 07:13:28
Eccentricity: 0.0002966
inclination: 51.6387°
perigee height: 403 km
apogee height: 407 km
right ascension of ascending node: 241.4249°
argument of perigee: 111.9408°
revolutions per day: 15.54101215
mean anomaly at epoch: 248.2060°
orbit number at epoch: 2033

The dashed part of the orbit path shows where the satellite is in the earth's shadow,  

DLR